[[{"header":{"parameterUnit":"m.s-1","parameterCategory":1,"la1":30.2991,"la2":30.254,"lo1":-89.0895,"lo2":-89.0444,"dy":0.0017,"dx":0.0017,"nx":28,"ny":28,"refTime":"2025-06-22T21:00:00:Z","depth":0,"parameterNumber":2,"parameterNumberName":"U-component_of_WINDS"},"data":[0,0,0,0,0,0,0,0,0,0,0,0,0,0,0,0,0,0,0,0,0,0,0,0,0,0,0,0,0,0,0,0,0,0,0,0,0,0,0,0,0,0,0,0,0,0,0,0,0,0,0,0,0,0,0,0,0,0,-1.6435,-1.6434,0,-1.6315,-1.6314,-1.6312,-1.6217,-1.6216,-1.6215,-1.6214,-1.6089,-1.6086,-1.6084,0,0,0,0,0,0,0,0,0,0,0,0,0,-1.6583,-1.6581,-1.6436,-1.6434,-1.6433,-1.6315,-1.6314,-1.6312,-1.6217,-1.6216,-1.6215,-1.6213,-1.6089,-1.6087,-1.6084,0,0,0,0,0,0,0,0,0,0,0,0,0,-1.6497,-1.658,-1.6436,-1.6371,-1.6364,-1.6316,-1.6314,-1.6312,-1.6217,-1.6216,-1.6214,-1.6213,-1.609,-1.6087,-1.6083,-1.6089,0,0,-1.6072,-1.607,0,0,0,0,0,0,0,0,-1.6502,-1.6491,-1.6382,-1.6375,-1.6367,-1.6279,-1.632,-1.6237,-1.6217,-1.6273,-1.6214,-1.6212,-1.6153,-1.6144,-1.6125,-1.6083,-1.6078,-1.6072,-1.6069,-1.6068,-1.6067,0,0,0,0,0,0,0,-1.6508,-1.6496,-1.6388,-1.6381,-1.6372,-1.6348,-1.6334,-1.6304,-1.6222,-1.6268,-1.6261,-1.6248,-1.6149,-1.6129,-1.6121,-1.6076,-1.6072,-1.6068,-1.6066,-1.6065,-1.6035,-1.6036,0,0,0,0,0,0,-1.6524,-1.6502,-1.6392,-1.6384,-1.6433,-1.6347,-1.6331,-1.6309,-1.6222,-1.6208,-1.6249,-1.6244,-1.6135,-1.6125,-1.6116,-1.6118,-1.6068,-1.6064,-1.6062,-1.6033,-1.6035,-1.6037,0,0,0,0,0,0,-1.6528,-1.6515,-1.6396,-1.6441,-1.6424,-1.6345,-1.6322,-1.6307,-1.6287,-1.6208,-1.6193,-1.6243,-1.6134,-1.6121,-1.6097,-1.6112,-1.6063,-1.6059,-1.6032,-1.6034,-1.6036,-1.6121,0,0,0,0,0,0,-1.6532,-1.6517,-1.6518,-1.6442,-1.6422,-1.6379,-1.6323,-1.6306,-1.6281,-1.6273,-1.6199,-1.6185,-1.6132,-1.6103,-1.6093,-1.6106,-1.6057,-1.603,-1.6033,-1.6035,-1.6117,-1.6126,-1.6134,0,0,0,0,0,-1.6538,-1.6546,-1.6519,-1.6506,-1.6422,-1.638,-1.6369,-1.6308,-1.6283,-1.6283,-1.6233,-1.6187,-1.6113,-1.6101,-1.609,-1.6102,-1.6029,-1.6032,-1.6035,-1.6113,-1.6124,-1.6134,0,0,0,0,0,0,-1.6625,-1.6535,-1.6503,-1.6487,-1.6442,-1.6364,-1.6363,-1.6322,-1.6283,-1.6277,-1.6203,-1.6187,-1.6171,-1.6134,-1.6123,-1.6104,-1.6065,-1.6066,-1.6128,-1.6138,-1.6147,-1.6155,-1.6054,0,0,0,0,0,-1.6643,-1.6617,-1.6539,-1.6532,-1.6512,-1.6442,-1.6421,-1.6379,-1.6329,-1.6309,-1.6257,-1.6211,-1.6177,-1.6155,-1.612,-1.6112,-1.6094,-1.6115,-1.6123,-1.6131,-1.6132,-1.6126,-1.6134,-1.6047,-1.6047,-1.6047,0,0,-1.6678,-1.6626,-1.6613,-1.6549,-1.6509,-1.6484,-1.6426,-1.6402,-1.6382,-1.6305,-1.6279,-1.624,-1.6183,-1.6167,-1.6158,-1.6136,-1.6153,-1.6135,-1.6141,-1.6138,-1.613,-1.6139,-1.6146,-1.6049,-1.6049,-1.6048,0,0,-1.673,-1.6688,-1.6678,-1.664,-1.6581,-1.6535,-1.6533,-1.6462,-1.6433,-1.6406,-1.6348,-1.6325,-1.6267,-1.623,-1.6203,-1.6245,-1.6201,-1.6235,-1.628,-1.6275,-1.6282,-1.6288,-1.6302,-1.6309,-1.6237,-1.6237,-1.6237,0,-1.6781,-1.6741,-1.6678,-1.6657,-1.6631,-1.6562,-1.6552,-1.6518,-1.6451,-1.6434,-1.6412,-1.634,-1.6296,-1.6272,-1.6282,-1.6263,-1.6258,-1.6242,-1.6286,-1.6291,-1.6296,-1.6309,-1.6315,-1.6242,-1.6241,-1.6241,-1.624,0,-1.6807,-1.6781,-1.678,-1.6718,-1.6692,-1.6677,-1.6612,-1.6593,-1.6554,-1.6511,-1.6485,-1.6431,-1.6384,-1.6375,-1.6336,-1.6346,-1.6334,-1.63,-1.6259,-1.6309,-1.6321,-1.6325,-1.6248,-1.6246,-1.6245,-1.6244,0,0,-1.6907,-1.6813,-1.6814,-1.6786,-1.6717,-1.6695,-1.6678,-1.6633,-1.6619,-1.6576,-1.6559,-1.6515,-1.6483,-1.6453,-1.6409,-1.6406,-1.6443,-1.6371,-1.6369,-1.6387,-1.645,-1.6476,-1.6483,-1.6414,-1.6415,-1.6416,-1.6455,0,-1.6948,-1.6913,-1.6857,-1.684,-1.6816,-1.6752,-1.6737,-1.6694,-1.6654,-1.6627,-1.6582,-1.6552,-1.6512,-1.6494,-1.6488,-1.644,-1.6454,-1.6436,-1.6398,-1.6398,-1.6414,-1.6489,-1.6515,-1.6555,-1.6459,-1.646,-1.646,0,-1.6989,-1.6952,-1.6933,-1.6868,-1.6856,-1.6844,-1.6799,-1.6775,-1.6725,-1.6696,-1.6665,-1.6618,-1.6597,-1.6561,-1.6532,-1.6521,-1.6502,-1.6477,-1.6477,-1.647,-1.6431,-1.6484,-1.6566,-1.6572,-1.6467,-1.6466,-1.6466,0,-1.7065,-1.7009,-1.6991,-1.6969,-1.6893,-1.6886,-1.6854,-1.6803,-1.6781,-1.6742,-1.6727,-1.6686,-1.6664,-1.6634,-1.6577,-1.6557,-1.6554,-1.6514,-1.653,-1.6531,-1.653,-1.6531,-1.6611,-1.6521,-1.652,-1.652,-1.652,0,-1.7115,-1.7106,-1.7024,-1.7013,-1.7002,-1.6938,-1.6929,-1.6891,-1.6847,-1.6828,-1.677,-1.6753,-1.668,-1.6655,-1.6611,-1.6594,-1.6584,-1.656,-1.6548,-1.6565,-1.6568,-1.6551,-1.6546,-1.6522,-1.6521,-1.6521,-1.6521,0,-1.7197,-1.7141,-1.7117,-1.7048,-1.7031,-1.7026,-1.6967,-1.6954,-1.6912,-1.6888,-1.6879,-1.6813,-1.678,-1.6722,-1.6673,-1.6643,-1.6635,-1.6615,-1.6652,-1.6644,-1.6664,-1.6663,-1.6734,-1.6741,-1.6648,-1.6649,-1.6649,0,-1.7232,-1.7224,-1.7155,-1.7139,-1.7109,-1.7083,-1.706,-1.6999,-1.6977,-1.6922,-1.6916,-1.688,-1.6847,-1.6798,-1.6745,-1.6708,-1.6686,-1.6714,-1.668,-1.6698,-1.6687,-1.6687,-1.6687,-1.6722,-1.6723,-1.6724,-1.6725,0,-1.7301,-1.7274,-1.7244,-1.7205,-1.718,-1.7146,-1.7108,-1.7098,-1.7028,-1.7008,-1.6974,-1.695,-1.69,-1.6865,-1.6821,-1.6787,-1.6745,-1.6737,-1.6738,-1.6754,-1.6776,-1.6764,-1.6672,-1.6735,-1.6734,-1.6733,-1.6732,-1.6732,-1.7359,-1.735,-1.7301,-1.7269,-1.7236,-1.7203,-1.7188,-1.7145,-1.7117,-1.7072,-1.7038,-1.7008,-1.696,-1.6896,-1.6866,-1.6842,-1.6822,-1.6824,-1.6825,-1.6826,-1.6833,-1.6781,-1.6834,-1.6833,-1.6833,-1.6833,-1.6833,0,-1.7425,-1.7391,-1.7363,-1.7314,-1.729,-1.7254,-1.7211,-1.7193,-1.7168,-1.7128,-1.7098,-1.7061,-1.7027,-1.6973,-1.6935,-1.6926,-1.6905,-1.6918,-1.6917,-1.6911,-1.6853,-1.6855,-1.6935,-1.6935,-1.6935,-1.6935,-1.6935,-1.6935,-1.7456,-1.7439,-1.7407,-1.7373,-1.7338,-1.7309,-1.7288,-1.7258,-1.7226,-1.7188,-1.716,-1.7125,-1.708,-1.7038,-1.7006,-1.6991,-1.6979,-1.6998,-1.6977,-1.6924,-1.6914,-1.6905,-1.6907,-1.6996,-1.6997,-1.7036,-1.7037,-1.7037]},{"header":{"parameterUnit":"m.s-1","parameterCategory":1,"la1":30.2991,"la2":30.254,"lo1":-89.0895,"lo2":-89.0444,"dy":0.0017,"dx":0.0017,"nx":28,"ny":28,"refTime":"2025-06-22T21:00:00:Z","depth":0,"parameterNumber":3,"parameterNumberName":"V-component_of_WINDS"},"data":[0,0,0,0,0,0,0,0,0,0,0,0,0,0,0,0,0,0,0,0,0,0,0,0,0,0,0,0,0,0,0,0,0,0,0,0,0,0,0,0,0,0,0,0,0,0,0,0,0,0,0,0,0,0,0,0,0,0,3.4161,3.4161,0,3.418,3.418,3.418,3.4231,3.4232,3.4234,3.4235,3.4248,3.4248,3.4247,0,0,0,0,0,0,0,0,0,0,0,0,0,3.4165,3.4165,3.4161,3.4161,3.4161,3.418,3.418,3.418,3.4231,3.4232,3.4234,3.4235,3.4249,3.4248,3.4247,0,0,0,0,0,0,0,0,0,0,0,0,0,3.4171,3.4165,3.4161,3.4189,3.4192,3.418,3.418,3.418,3.4231,3.4232,3.4234,3.4236,3.4249,3.4248,3.4247,3.4207,0,0,3.4244,3.4243,0,0,0,0,0,0,0,0,3.4171,3.4171,3.4185,3.4187,3.419,3.4205,3.4187,3.4189,3.423,3.4216,3.4235,3.4237,3.4232,3.4233,3.4232,3.4207,3.4208,3.4244,3.4243,3.4243,3.4242,0,0,0,0,0,0,0,3.4171,3.4171,3.4168,3.4185,3.4188,3.42,3.4202,3.4187,3.4214,3.4217,3.4221,3.4223,3.4234,3.4233,3.4233,3.4208,3.4244,3.4243,3.4242,3.4242,3.4152,3.415,0,0,0,0,0,0,3.4167,3.417,3.4168,3.4169,3.4185,3.4198,3.4201,3.4198,3.4215,3.4219,3.4221,3.4225,3.4234,3.4234,3.4234,3.4188,3.4243,3.4242,3.4241,3.4154,3.4152,3.415,0,0,0,0,0,0,3.4167,3.4166,3.4167,3.4171,3.4172,3.4196,3.4193,3.4198,3.4197,3.4218,3.4222,3.4216,3.4235,3.4235,3.4214,3.4189,3.4241,3.424,3.4156,3.4153,3.4151,3.4096,0,0,0,0,0,0,3.4167,3.4166,3.4152,3.417,3.4171,3.4148,3.4191,3.4197,3.4196,3.4201,3.4214,3.4217,3.4237,3.4215,3.4213,3.4189,3.4239,3.4158,3.4155,3.4152,3.41,3.4092,3.4085,0,0,0,0,0,3.4167,3.4134,3.4151,3.415,3.4154,3.4146,3.4147,3.4171,3.4194,3.4179,3.4193,3.4217,3.4193,3.4212,3.421,3.4186,3.416,3.4156,3.4152,3.4104,3.4094,3.4085,0,0,0,0,0,0,3.411,3.4137,3.4156,3.4129,3.4135,3.4155,3.4137,3.416,3.4158,3.4163,3.4191,3.4194,3.4168,3.4175,3.4196,3.4148,3.418,3.4176,3.4144,3.4135,3.4128,3.4126,3.4239,0,0,0,0,0,3.4095,3.4088,3.4111,3.4085,3.4088,3.4112,3.4109,3.4128,3.4134,3.4137,3.4149,3.4153,3.4147,3.4141,3.4136,3.4102,3.4105,3.4084,3.4077,3.407,3.4066,3.4048,3.4039,3.4137,3.4137,3.4137,0,0,3.4063,3.4077,3.407,3.4074,3.4081,3.4072,3.4113,3.4101,3.4094,3.4134,3.4115,3.4124,3.4131,3.4103,3.4091,3.4108,3.404,3.4065,3.406,3.4059,3.4043,3.4034,3.4026,3.4134,3.4134,3.4135,0,0,3.4,3.401,3.3989,3.3996,3.4007,3.4024,3.4019,3.4036,3.4044,3.4026,3.4056,3.4047,3.4035,3.4039,3.4039,3.3979,3.4001,3.3976,3.3936,3.3919,3.3911,3.3904,3.3882,3.3874,3.3972,3.3972,3.3972,0,3.3958,3.3946,3.3976,3.3962,3.3963,3.4001,3.398,3.3985,3.3993,3.3992,3.4011,3.3997,3.4004,3.3978,3.3964,3.3963,3.3957,3.3975,3.391,3.3904,3.3898,3.3877,3.3869,3.3969,3.3969,3.3969,3.397,0,3.3894,3.3886,3.3868,3.3877,3.3875,3.3858,3.3884,3.3879,3.3897,3.3912,3.3892,3.3903,3.3901,3.3896,3.3914,3.3872,3.3882,3.3905,3.3938,3.3885,3.3866,3.3858,3.3964,3.3965,3.3966,3.3967,0,0,3.3794,3.3822,3.3814,3.3819,3.3835,3.3828,3.3812,3.3813,3.3807,3.3812,3.3799,3.3789,3.381,3.3811,3.3829,3.3814,3.3765,3.3839,3.3839,3.3824,3.372,3.3702,3.3693,3.3781,3.3779,3.3778,3.3719,0,3.3734,3.3711,3.3737,3.3707,3.37,3.3737,3.3723,3.373,3.3743,3.3737,3.3751,3.3744,3.3773,3.3774,3.3761,3.3774,3.3744,3.3779,3.3767,3.3766,3.3764,3.3683,3.3664,3.3608,3.3712,3.3711,3.371,0,3.3661,3.3664,3.3634,3.3653,3.365,3.3638,3.364,3.3635,3.3644,3.3655,3.3656,3.3679,3.3664,3.3696,3.3675,3.3698,3.3695,3.3701,3.3699,3.3698,3.3734,3.3679,3.3591,3.3582,3.3699,3.37,3.37,0,3.3591,3.3588,3.357,3.3573,3.3594,3.3584,3.3592,3.3603,3.3602,3.3603,3.3603,3.3602,3.3601,3.36,3.3621,3.3643,3.3597,3.3632,3.3605,3.3604,3.3592,3.3593,3.3501,3.3591,3.3592,3.3592,3.3592,0,3.3521,3.3501,3.3539,3.3527,3.3506,3.3536,3.3514,3.3525,3.3535,3.3525,3.3557,3.3547,3.3577,3.357,3.3587,3.3567,3.3566,3.3574,3.3578,3.357,3.3569,3.3568,3.3572,3.359,3.359,3.359,3.3591,0,3.3438,3.3463,3.3446,3.3468,3.3473,3.3456,3.3475,3.3464,3.3481,3.3468,3.3467,3.3491,3.3485,3.3507,3.3504,3.3515,3.3485,3.3497,3.3483,3.3486,3.3457,3.346,3.3362,3.335,3.3448,3.3447,3.3446,0,3.3392,3.3378,3.3399,3.3396,3.3403,3.3398,3.3397,3.3426,3.3424,3.3434,3.3422,3.3419,3.3418,3.3406,3.3422,3.342,3.3431,3.3397,3.343,3.3423,3.343,3.343,3.3429,3.3389,3.3388,3.3387,3.3386,0,3.3306,3.332,3.3319,3.3322,3.3321,3.3324,3.333,3.3325,3.3357,3.3352,3.3347,3.3347,3.3345,3.3341,3.3342,3.3349,3.3372,3.3376,3.3369,3.3361,3.3354,3.3357,3.3463,3.3378,3.3379,3.3379,3.338,3.338,3.324,3.3229,3.3243,3.3241,3.3249,3.3254,3.3246,3.3261,3.3258,3.326,3.3277,3.3269,3.3278,3.3283,3.3288,3.3281,3.3296,3.3287,3.3285,3.3282,3.3277,3.3355,3.3281,3.3281,3.3282,3.3282,3.3282,0,3.3156,3.3167,3.3165,3.3173,3.3171,3.3196,3.3203,3.32,3.3193,3.32,3.32,3.3194,3.319,3.3207,3.3206,3.3197,3.3208,3.3195,3.3196,3.3197,3.3263,3.3269,3.3187,3.3187,3.3187,3.3187,3.3187,3.3187,3.3112,3.3096,3.311,3.3098,3.3109,3.3103,3.3105,3.3109,3.3116,3.3108,3.3107,3.3118,3.313,3.313,3.3127,3.3132,3.313,3.3114,3.3122,3.3183,3.3192,3.3201,3.3207,3.3113,3.3113,3.3057,3.3057,3.3056]}]]